START_TIME,STEP,MOV.,A46,t_acc.,A13,t_acc.,M47,t_acc.,A17,t_acc.,A28,t_acc.,M38,t_acc.
1986-01-24 00:00:03.030 ,4,0,,0,0.,4.8,0.,4.8,,0,0.,4.8,0.,4.8
1986-01-24 00:00:07.830 ,4,0,,0,0.,4.8,0.,4.8,,0,0.,4.8,0.,4.8
1986-01-24 00:00:12.630 ,4,0,,0,1.,4.8,0.,4.8,,0,0.,4.8,0.,4.8
1986-01-24 00:00:17.430 ,4,0,,0,0.,4.8,0.,4.8,,0,0.,4.8,0.,4.8
1986-01-24 00:00:22.230 ,4,0,,0,0.,4.8,0.,4.8,,0,0.,4.8,0.,4.8
1986-01-24 00:00:27.030 ,4,0,,0,1.,4.8,0.,4.8,,0,0.,4.8,0.,4.8
1986-01-24 00:00:31.830 ,4,0,,0,0.,4.8,0.,4.8,,0,0.,4.8,0.,4.8
1986-01-24 00:00:36.630 ,4,0,,0,0.,4.8,0.,4.8,,0,0.,4.8,0.,4.8
1986-01-24 00:00:41.430 ,4,0,,0,0.,4.8,0.,4.8,,0,0.,4.8,0.,4.8
1986-01-24 00:00:46.230 ,4,0,,0,0.,4.8,0.,4.8,,0,0.,4.8,0.,4.8
1986-01-24 00:00:51.030 ,3,0,,0,1.,4.8,0.,4.8,,0,0.,4.8,0.,4.8
1986-01-24 00:00:55.830 ,3,0,,0,0.,4.8,0.,4.8,,0,0.,4.8,0.,4.8
1986-01-24 00:01:00.630 ,3,0,,0,0.,4.8,0.,4.8,,0,0.,4.8,0.,4.8
1986-01-24 00:01:05.430 ,3,0,,0,0.,4.8,0.,4.8,,0,0.,4.8,0.,4.8
1986-01-24 00:01:10.230 ,3,0,,0,1.,4.8,0.,4.8,,0,0.,4.8,0.,4.8
1986-01-24 00:01:15.030 ,3,0,,0,0.,4.8,0.,4.8,,0,0.,4.8,0.,4.8
1986-01-24 00:01:19.830 ,3,0,,0,0.,4.8,0.,4.8,,0,0.,4.8,0.,4.8
1986-01-24 00:01:24.630 ,3,0,,0,0.,4.8,0.,4.8,,0,0.,4.8,0.,4.8
1986-01-24 00:01:29.430 ,3,0,,0,0.,4.8,0.,4.8,,0,0.,4.8,0.,4.8
1986-01-24 00:01:34.230 ,3,0,,0,1.,4.8,0.,4.8,,0,0.,4.8,0.,4.8
1986-01-24 00:01:39.030 ,2,0,,0,0.,4.8,0.,4.8,,0,0.,4.8,0.,4.8
1986-01-24 00:01:43.830 ,2,0,,0,1.,4.8,0.,4.8,,0,0.,4.8,0.,4.8
1986-01-24 00:01:48.630 ,2,0,,0,0.,4.8,0.,4.8,,0,0.,4.8,0.,4.8
1986-01-24 00:01:53.430 ,2,0,,0,0.,4.8,0.,4.8,,0,0.,4.8,0.,4.8
1986-01-24 00:01:58.230 ,2,0,,0,0.,4.8,0.,4.8,,0,0.,4.8,0.,4.8
1986-01-24 00:02:03.030 ,2,0,,0,0.,4.8,0.,4.8,,0,0.,4.8,0.,4.8
1986-01-24 00:02:07.830 ,2,0,,0,0.,4.8,0.,4.8,,0,0.,4.8,0.,4.8
1986-01-24 00:02:12.630 ,2,0,,0,0.,4.8,0.,4.8,,0,0.,4.8,0.,4.8
1986-01-24 00:02:17.430 ,2,0,,0,0.,4.8,0.,4.8,,0,0.,4.8,0.,4.8
1986-01-24 00:02:22.230 ,2,0,,0,1.,4.8,0.,4.8,,0,0.,4.8,0.,4.8
1986-01-24 00:02:27.030 ,1,0,,0,0.,4.8,0.,4.8,,0,0.,4.8,0.,4.8
1986-01-24 00:02:31.830 ,1,0,,0,1.,4.8,0.,4.8,,0,0.,4.8,0.,4.8
1986-01-24 00:02:36.630 ,1,0,,0,1.,4.8,0.,4.8,,0,0.,4.8,0.,4.8
1986-01-24 00:02:41.430 ,1,0,,0,0.,4.8,0.,4.8,,0,0.,4.8,0.,4.8
1986-01-24 00:02:46.230 ,1,0,,0,0.,4.8,0.,4.8,,0,0.,4.8,0.,4.8
1986-01-24 00:02:51.030 ,1,0,,0,1.,4.8,0.,4.8,,0,0.,4.8,0.,4.8
1986-01-24 00:02:55.830 ,1,0,,0,0.,4.8,0.,4.8,,0,0.,4.8,0.,4.8
1986-01-24 00:03:00.630 ,1,0,,0,0.,4.8,0.,4.8,,0,0.,4.8,0.,4.8
1986-01-24 00:03:05.430 ,1,0,,0,0.,4.8,0.,4.8,,0,0.,4.8,0.,4.8
1986-01-24 00:03:10.230 ,1,0,,0,0.,4.8,0.,4.8,,0,0.,4.8,0.,4.8
1986-01-24 00:03:15.030 ,0,0,,0,0.,4.8,0.,4.8,,0,0.,4.8,0.,4.8
1986-01-24 00:03:19.830 ,0,0,,0,0.,4.8,0.,4.8,,0,0.,4.8,0.,4.8
1986-01-24 00:03:24.630 ,0,0,,0,0.,4.8,0.,4.8,,0,0.,4.8,0.,4.8
1986-01-24 00:03:29.430 ,0,0,,0,0.,4.8,0.,4.8,,0,0.,4.8,0.,4.8
1986-01-24 00:03:34.230 ,0,0,,0,0.,4.8,0.,4.8,,0,0.,4.8,0.,4.8
1986-01-24 00:03:39.030 ,0,0,,0,0.,4.8,0.,4.8,,0,0.,4.8,0.,4.8
1986-01-24 00:03:43.830 ,0,0,,0,1.,4.8,0.,4.8,,0,0.,4.8,0.,4.8
1986-01-24 00:03:48.630 ,0,0,,0,0.,4.8,0.,4.8,,0,0.,4.8,0.,4.8
1986-01-24 00:03:53.430 ,0,0,,0,0.,4.8,0.,4.8,,0,0.,4.8,0.,4.8
1986-01-24 00:03:58.230 ,0,0,,0,0.,4.8,0.,4.8,,0,0.,4.8,0.,4.8
1986-01-24 00:04:03.030 ,0,0,,0,1.,4.8,0.,4.8,,0,0.,4.8,0.,4.8
1986-01-24 00:04:07.830 ,0,0,,0,0.,4.8,0.,4.8,,0,0.,4.8,0.,4.8
1986-01-24 00:04:12.630 ,0,0,,0,0.,4.8,0.,4.8,,0,0.,4.8,0.,4.8
1986-01-24 00:04:17.430 ,0,0,,0,0.,4.8,0.,4.8,,0,0.,4.8,0.,4.8
1986-01-24 00:04:22.230 ,0,0,,0,0.,4.8,0.,4.8,,0,0.,4.8,0.,4.8
1986-01-24 00:04:27.030 ,0,0,,0,0.,4.8,0.,4.8,,0,0.,4.8,0.,4.8
1986-01-24 00:04:31.830 ,0,0,,0,0.,4.8,0.,4.8,,0,0.,4.8,0.,4.8
1986-01-24 00:04:36.630 ,0,0,,0,0.,4.8,0.,4.8,,0,0.,4.8,0.,4.8
1986-01-24 00:04:41.430 ,0,0,,0,0.,4.8,0.,4.8,,0,0.,4.8,0.,4.8
1986-01-24 00:04:46.230 ,0,0,,0,0.,4.8,0.,4.8,,0,0.,4.8,0.,4.8
1986-01-24 00:04:51.030 ,1,0,,0,1.,4.8,0.,4.8,,0,0.,4.8,0.,4.8
1986-01-24 00:04:55.830 ,1,0,,0,1.,4.8,0.,4.8,,0,0.,4.8,0.,4.8
1986-01-24 00:05:00.630 ,1,0,,0,1.,4.8,0.,4.8,,0,0.,4.8,0.,4.8
1986-01-24 00:05:05.430 ,1,0,,0,0.,4.8,0.,4.8,,0,0.,4.8,0.,4.8
1986-01-24 00:05:10.230 ,1,0,,0,0.,4.8,0.,4.8,,0,0.,4.8,0.,4.8
1986-01-24 00:05:15.030 ,1,0,,0,0.,4.8,0.,4.8,,0,0.,4.8,0.,4.8
1986-01-24 00:05:19.830 ,1,0,,0,1.,4.8,0.,4.8,,0,0.,4.8,0.,4.8
1986-01-24 00:05:24.630 ,1,0,,0,1.,4.8,1.,4.8,,0,0.,4.8,0.,4.8
1986-01-24 00:05:29.430 ,1,0,,0,2.,4.8,0.,4.8,,0,0.,4.8,0.,4.8
1986-01-24 00:05:34.230 ,1,0,,0,0.,4.8,0.,4.8,,0,0.,4.8,0.,4.8
1986-01-24 00:05:39.030 ,2,0,,0,0.,4.8,0.,4.8,,0,0.,4.8,0.,4.8
1986-01-24 00:05:43.830 ,2,0,,0,0.,4.8,0.,4.8,,0,0.,4.8,0.,4.8
1986-01-24 00:05:48.630 ,2,0,,0,1.,4.8,0.,4.8,,0,0.,4.8,0.,4.8
1986-01-24 00:05:53.430 ,2,0,,0,1.,4.8,0.,4.8,,0,0.,4.8,0.,4.8
1986-01-24 00:05:58.230 ,2,0,,0,1.,4.8,1.,4.8,,0,0.,4.8,0.,4.8
1986-01-24 00:06:03.030 ,2,0,,0,0.,4.8,0.,4.8,,0,0.,4.8,0.,4.8
1986-01-24 00:06:07.830 ,2,0,,0,0.,4.8,0.,4.8,,0,0.,4.8,0.,4.8
1986-01-24 00:06:12.630 ,2,0,,0,0.,4.8,0.,4.8,,0,0.,4.8,0.,4.8
1986-01-24 00:06:17.430 ,2,0,,0,0.,4.8,0.,4.8,,0,0.,4.8,0.,4.8
1986-01-24 00:06:22.230 ,2,0,,0,1.,4.8,0.,4.8,,0,0.,4.8,0.,4.8
1986-01-24 00:06:27.030 ,3,0,,0,0.,4.8,0.,4.8,,0,0.,4.8,0.,4.8
1986-01-24 00:06:31.830 ,3,0,,0,0.,4.8,0.,4.8,,0,0.,4.8,0.,4.8
1986-01-24 00:06:36.630 ,3,0,,0,1.,4.8,0.,4.8,,0,0.,4.8,0.,4.8
1986-01-24 00:06:41.430 ,3,0,,0,0.,4.8,0.,4.8,,0,0.,4.8,0.,4.8
1986-01-24 00:06:46.230 ,3,0,,0,1.,4.8,0.,4.8,,0,0.,4.8,0.,4.8
1986-01-24 00:06:51.030 ,3,0,,0,0.,4.8,0.,4.8,,0,0.,4.8,0.,4.8
1986-01-24 00:06:55.830 ,3,0,,0,0.,4.8,0.,4.8,,0,0.,4.8,0.,4.8
1986-01-24 00:07:00.630 ,3,0,,0,0.,4.8,0.,4.8,,0,0.,4.8,0.,4.8
1986-01-24 00:07:05.430 ,3,0,,0,0.,4.8,0.,4.8,,0,0.,4.8,0.,4.8
1986-01-24 00:07:10.230 ,3,0,,0,0.,4.8,0.,4.8,,0,0.,4.8,0.,4.8
1986-01-24 00:07:15.030 ,4,0,,0,1.,4.8,0.,4.8,,0,0.,4.8,0.,4.8
1986-01-24 00:07:19.830 ,4,0,,0,3.,4.8,0.,4.8,,0,0.,4.8,0.,4.8
1986-01-24 00:07:24.630 ,4,0,,0,0.,4.8,0.,4.8,,0,0.,4.8,0.,4.8
1986-01-24 00:07:29.430 ,4,0,,0,0.,4.8,0.,4.8,,0,0.,4.8,0.,4.8
1986-01-24 00:07:34.230 ,4,0,,0,0.,4.8,0.,4.8,,0,0.,4.8,0.,4.8
1986-01-24 00:07:39.030 ,4,0,,0,0.,4.8,0.,4.8,,0,0.,4.8,0.,4.8
1986-01-24 00:07:43.830 ,4,0,,0,0.,4.8,0.,4.8,,0,0.,4.8,0.,4.8
1986-01-24 00:07:48.630 ,4,0,,0,0.,4.8,0.,4.8,,0,0.,4.8,0.,4.8
1986-01-24 00:07:53.430 ,4,0,,0,1.,4.8,0.,4.8,,0,0.,4.8,0.,4.8
1986-01-24 00:07:58.230 ,4,0,,0,2.,4.8,0.,4.8,,0,0.,4.8,0.,4.8
1986-01-24 00:08:03.030 ,5,0,,0,1.,4.8,0.,4.8,,0,0.,4.8,0.,4.8
1986-01-24 00:08:07.830 ,5,0,,0,1.,4.8,0.,4.8,,0,0.,4.8,0.,4.8
1986-01-24 00:08:12.630 ,5,0,,0,1.,4.8,0.,4.8,,0,0.,4.8,0.,4.8
1986-01-24 00:08:17.430 ,5,0,,0,0.,4.8,0.,4.8,,0,0.,4.8,0.,4.8
1986-01-24 00:08:22.230 ,5,0,,0,0.,4.8,0.,4.8,,0,0.,4.8,0.,4.8
1986-01-24 00:08:27.030 ,5,0,,0,0.,4.8,0.,4.8,,0,0.,4.8,0.,4.8
1986-01-24 00:08:31.830 ,5,0,,0,0.,4.8,0.,4.8,,0,0.,4.8,0.,4.8
1986-01-24 00:08:36.630 ,5,0,,0,1.,4.8,0.,4.8,,0,0.,4.8,0.,4.8
1986-01-24 00:08:41.430 ,5,0,,0,0.,4.8,0.,4.8,,0,0.,4.8,0.,4.8
1986-01-24 00:08:46.230 ,5,0,,0,1.,4.8,0.,4.8,,0,0.,4.8,0.,4.8
1986-01-24 00:08:51.030 ,6,0,,0,0.,4.8,0.,4.8,,0,0.,4.8,0.,4.8
1986-01-24 00:08:55.830 ,6,0,,0,1.,4.8,0.,4.8,,0,0.,4.8,0.,4.8
1986-01-24 00:09:00.630 ,6,0,,0,0.,4.8,0.,4.8,,0,0.,4.8,0.,4.8
1986-01-24 00:09:05.430 ,6,0,,0,0.,4.8,0.,4.8,,0,0.,4.8,0.,4.8
1986-01-24 00:09:10.230 ,6,0,,0,0.,4.8,0.,4.8,,0,0.,4.8,0.,4.8
1986-01-24 00:09:15.030 ,6,0,,0,0.,4.8,0.,4.8,,0,0.,4.8,0.,4.8
1986-01-24 00:09:19.830 ,6,0,,0,1.,4.8,0.,4.8,,0,0.,4.8,0.,4.8
1986-01-24 00:09:24.630 ,6,0,,0,0.,4.8,0.,4.8,,0,0.,4.8,0.,4.8
1986-01-24 00:09:29.430 ,6,0,,0,0.,4.8,0.,4.8,,0,0.,4.8,0.,4.8
1986-01-24 00:09:34.230 ,6,0,,0,1.,4.8,0.,4.8,,0,0.,4.8,0.,4.8
1986-01-24 00:09:39.030 ,7,0,,0,1.,4.8,0.,4.8,,0,0.,4.8,0.,4.8
1986-01-24 00:09:43.830 ,7,0,,0,0.,4.8,0.,4.8,,0,0.,4.8,0.,4.8
1986-01-24 00:09:48.630 ,7,0,,0,2.,4.8,0.,4.8,,0,0.,4.8,0.,4.8
1986-01-24 00:09:53.430 ,7,0,,0,7.,4.8,0.,4.8,,0,0.,4.8,0.,4.8
1986-01-24 00:09:58.230 ,7,0,,0,4.,4.8,0.,4.8,,0,0.,4.8,0.,4.8
1986-01-24 00:10:03.030 ,7,0,,0,7.,4.8,0.,4.8,,0,0.,4.8,0.,4.8
1986-01-24 00:10:07.830 ,7,0,,0,10.,4.8,0.,4.8,,0,0.,4.8,0.,4.8
1986-01-24 00:10:12.630 ,7,0,,0,8.,4.8,0.,4.8,,0,0.,4.8,0.,4.8
1986-01-24 00:10:17.430 ,7,0,,0,0.,4.8,0.,4.8,,0,0.,4.8,0.,4.8
1986-01-24 00:10:22.230 ,7,0,,0,2.,4.8,0.,4.8,,0,0.,4.8,0.,4.8
1986-01-24 00:10:27.030 ,7,0,,0,1.,4.8,0.,4.8,,0,0.,4.8,0.,4.8
1986-01-24 00:10:31.830 ,7,0,,0,1.,4.8,0.,4.8,,0,0.,4.8,0.,4.8
1986-01-24 00:10:36.630 ,7,0,,0,0.,4.8,0.,4.8,,0,0.,4.8,0.,4.8
1986-01-24 00:10:41.430 ,7,0,,0,7.,4.8,0.,4.8,,0,0.,4.8,0.,4.8
1986-01-24 00:10:46.230 ,7,0,,0,7.,4.8,0.,4.8,,0,0.,4.8,0.,4.8
1986-01-24 00:10:51.030 ,7,0,,0,10.,4.8,0.,4.8,,0,0.,4.8,0.,4.8
1986-01-24 00:10:55.830 ,7,0,,0,6.,4.8,0.,4.8,,0,0.,4.8,0.,4.8
1986-01-24 00:11:00.630 ,7,0,,0,8.,4.8,0.,4.8,,0,0.,4.8,0.,4.8
1986-01-24 00:11:05.430 ,7,0,,0,0.,4.8,0.,4.8,,0,0.,4.8,0.,4.8
1986-01-24 00:11:10.230 ,7,0,,0,0.,4.8,0.,4.8,,0,0.,4.8,0.,4.8
1986-01-24 00:11:15.030 ,6,0,,0,0.,4.8,0.,4.8,,0,0.,4.8,0.,4.8
1986-01-24 00:11:19.830 ,6,0,,0,0.,4.8,0.,4.8,,0,0.,4.8,0.,4.8
1986-01-24 00:11:24.630 ,6,0,,0,0.,4.8,0.,4.8,,0,0.,4.8,0.,4.8
1986-01-24 00:11:29.430 ,6,0,,0,0.,4.8,0.,4.8,,0,0.,4.8,0.,4.8
1986-01-24 00:11:34.230 ,6,0,,0,0.,4.8,0.,4.8,,0,0.,4.8,0.,4.8
1986-01-24 00:11:39.030 ,6,0,,0,0.,4.8,0.,4.8,,0,0.,4.8,0.,4.8
1986-01-24 00:11:43.830 ,6,0,,0,1.,4.8,0.,4.8,,0,0.,4.8,0.,4.8
1986-01-24 00:11:48.630 ,6,0,,0,0.,4.8,0.,4.8,,0,0.,4.8,0.,4.8
1986-01-24 00:11:53.430 ,6,0,,0,1.,4.8,0.,4.8,,0,0.,4.8,0.,4.8
1986-01-24 00:11:58.230 ,6,0,,0,0.,4.8,0.,4.8,,0,0.,4.8,0.,4.8
1986-01-24 00:12:03.030 ,5,0,,0,0.,4.8,0.,4.8,,0,0.,4.8,0.,4.8
1986-01-24 00:12:07.830 ,5,0,,0,1.,4.8,0.,4.8,,0,0.,4.8,0.,4.8
1986-01-24 00:12:12.630 ,5,0,,0,1.,4.8,0.,4.8,,0,0.,4.8,0.,4.8
1986-01-24 00:12:17.430 ,5,0,,0,0.,4.8,0.,4.8,,0,0.,4.8,0.,4.8
1986-01-24 00:12:22.230 ,5,0,,0,0.,4.8,0.,4.8,,0,0.,4.8,0.,4.8
1986-01-24 00:12:27.030 ,5,0,,0,0.,4.8,0.,4.8,,0,0.,4.8,0.,4.8
1986-01-24 00:12:31.830 ,5,0,,0,0.,4.8,0.,4.8,,0,0.,4.8,0.,4.8
1986-01-24 00:12:36.630 ,5,0,,0,0.,4.8,0.,4.8,,0,0.,4.8,0.,4.8
1986-01-24 00:12:41.430 ,5,0,,0,0.,4.8,0.,4.8,,0,0.,4.8,0.,4.8
1986-01-24 00:12:46.230 ,5,0,,0,1.,4.8,0.,4.8,,0,0.,4.8,0.,4.8
1986-01-24 00:12:51.030 ,4,0,,0,0.,4.8,0.,4.8,,0,0.,4.8,0.,4.8
1986-01-24 00:12:55.830 ,4,0,,0,1.,4.8,0.,4.8,,0,0.,4.8,0.,4.8
1986-01-24 00:13:00.630 ,4,0,,0,0.,4.8,0.,4.8,,0,0.,4.8,0.,4.8
1986-01-24 00:13:05.430 ,4,0,,0,0.,4.8,0.,4.8,,0,0.,4.8,0.,4.8
1986-01-24 00:13:10.230 ,4,0,,0,0.,4.8,0.,4.8,,0,0.,4.8,0.,4.8
1986-01-24 00:13:15.030 ,4,0,,0,0.,4.8,0.,4.8,,0,0.,4.8,0.,4.8
1986-01-24 00:13:19.830 ,4,0,,0,0.,4.8,0.,4.8,,0,0.,4.8,0.,4.8
1986-01-24 00:13:24.630 ,4,0,,0,0.,4.8,0.,4.8,,0,0.,4.8,0.,4.8
1986-01-24 00:13:29.430 ,4,0,,0,1.,4.8,0.,4.8,,0,0.,4.8,0.,4.8
1986-01-24 00:13:34.230 ,4,0,,0,1.,4.8,0.,4.8,,0,0.,4.8,0.,4.8
1986-01-24 00:13:39.030 ,3,0,,0,0.,4.8,0.,4.8,,0,0.,4.8,0.,4.8
1986-01-24 00:13:43.830 ,3,0,,0,0.,4.8,0.,4.8,,0,0.,4.8,0.,4.8
1986-01-24 00:13:48.630 ,3,0,,0,0.,4.8,0.,4.8,,0,0.,4.8,0.,4.8
1986-01-24 00:13:53.430 ,3,0,,0,0.,4.8,0.,4.8,,0,0.,4.8,0.,4.8
1986-01-24 00:13:58.230 ,3,0,,0,1.,4.8,0.,4.8,,0,0.,4.8,0.,4.8
1986-01-24 00:14:03.030 ,3,0,,0,0.,4.8,0.,4.8,,0,0.,4.8,0.,4.8
1986-01-24 00:14:07.830 ,3,0,,0,0.,4.8,0.,4.8,,0,0.,4.8,0.,4.8
1986-01-24 00:14:12.630 ,3,0,,0,0.,4.8,0.,4.8,,0,0.,4.8,0.,4.8
1986-01-24 00:14:17.430 ,3,0,,0,0.,4.8,0.,4.8,,0,0.,4.8,0.,4.8
1986-01-24 00:14:22.230 ,3,0,,0,0.,4.8,0.,4.8,,0,0.,4.8,0.,4.8
1986-01-24 00:14:27.030 ,2,0,,0,1.,4.8,0.,4.8,,0,0.,4.8,0.,4.8
1986-01-24 00:14:31.830 ,2,0,,0,0.,4.8,0.,4.8,,0,0.,4.8,0.,4.8
1986-01-24 00:14:36.630 ,2,0,,0,1.,4.8,0.,4.8,,0,0.,4.8,0.,4.8
1986-01-24 00:14:41.430 ,2,0,,0,0.,4.8,0.,4.8,,0,0.,4.8,0.,4.8
1986-01-24 00:14:46.230 ,2,0,,0,0.,4.8,0.,4.8,,0,0.,4.8,0.,4.8
1986-01-24 00:14:51.030 ,2,0,,0,0.,4.8,0.,4.8,,0,0.,4.8,0.,4.8
1986-01-24 00:14:55.830 ,2,0,,0,1.,4.8,0.,4.8,,0,0.,4.8,0.,4.8
1986-01-24 00:15:00.630 ,2,0,,0,0.,4.8,0.,4.8,,0,0.,4.8,0.,4.8
1986-01-24 00:15:05.430 ,2,0,,0,1.,4.8,0.,4.8,,0,0.,4.8,0.,4.8
1986-01-24 00:15:10.230 ,2,0,,0,0.,4.8,0.,4.8,,0,0.,4.8,0.,4.8
1986-01-24 00:15:15.030 ,1,0,,0,2.,4.8,0.,4.8,,0,0.,4.8,0.,4.8
1986-01-24 00:15:19.830 ,1,0,,0,0.,4.8,0.,4.8,,0,0.,4.8,0.,4.8
1986-01-24 00:15:24.630 ,1,0,,0,0.,4.8,0.,4.8,,0,0.,4.8,0.,4.8
1986-01-24 00:15:29.430 ,1,0,,0,0.,4.8,0.,4.8,,0,0.,4.8,0.,4.8
1986-01-24 00:15:34.230 ,1,0,,0,0.,4.8,0.,4.8,,0,0.,4.8,0.,4.8
1986-01-24 00:15:39.030 ,1,0,,0,0.,4.8,0.,4.8,,0,0.,4.8,0.,4.8
1986-01-24 00:15:43.830 ,1,0,,0,0.,4.8,0.,4.8,,0,0.,4.8,0.,4.8
1986-01-24 00:15:48.630 ,1,0,,0,0.,4.8,0.,4.8,,0,0.,4.8,0.,4.8
1986-01-24 00:15:53.430 ,1,0,,0,1.,4.8,0.,4.8,,0,0.,4.8,0.,4.8
1986-01-24 00:15:58.230 ,1,0,,0,0.,4.8,0.,4.8,,0,0.,4.8,0.,4.8
1986-01-24 00:16:03.030 ,0,0,,0,0.,4.8,0.,4.8,,0,0.,4.8,0.,4.8
1986-01-24 00:16:07.830 ,0,0,,0,2.,4.8,0.,4.8,,0,0.,4.8,0.,4.8
1986-01-24 00:16:12.630 ,0,0,,0,0.,4.8,0.,4.8,,0,0.,4.8,0.,4.8
1986-01-24 00:16:17.430 ,0,0,,0,0.,4.8,0.,4.8,,0,0.,4.8,0.,4.8
1986-01-24 00:16:22.230 ,0,0,,0,0.,4.8,0.,4.8,,0,0.,4.8,0.,4.8
1986-01-24 00:16:27.030 ,0,0,,0,0.,4.8,0.,4.8,,0,0.,4.8,0.,4.8
1986-01-24 00:16:31.830 ,0,0,,0,0.,4.8,0.,4.8,,0,0.,4.8,0.,4.8
1986-01-24 00:16:36.630 ,0,0,,0,0.,4.8,0.,4.8,,0,0.,4.8,0.,4.8
1986-01-24 00:16:41.430 ,0,0,,0,0.,4.8,0.,4.8,,0,0.,4.8,0.,4.8
1986-01-24 00:16:46.230 ,0,0,,0,2.,4.8,0.,4.8,,0,0.,4.8,0.,4.8
1986-01-24 00:16:51.030 ,0,0,,0,1.,4.8,0.,4.8,,0,0.,4.8,0.,4.8
1986-01-24 00:16:55.830 ,0,0,,0,0.,4.8,0.,4.8,,0,0.,4.8,0.,4.8
1986-01-24 00:17:00.630 ,0,0,,0,0.,4.8,0.,4.8,,0,0.,4.8,0.,4.8
1986-01-24 00:17:05.430 ,0,0,,0,0.,4.8,0.,4.8,,0,0.,4.8,0.,4.8
1986-01-24 00:17:10.230 ,0,0,,0,0.,4.8,0.,4.8,,0,0.,4.8,0.,4.8
1986-01-24 00:17:15.030 ,0,0,,0,0.,4.8,0.,4.8,,0,0.,4.8,0.,4.8
1986-01-24 00:17:19.830 ,0,0,,0,0.,4.8,0.,4.8,,0,0.,4.8,0.,4.8
1986-01-24 00:17:24.630 ,0,0,,0,0.,4.8,0.,4.8,,0,0.,4.8,0.,4.8
1986-01-24 00:17:29.430 ,0,0,,0,0.,4.8,0.,4.8,,0,0.,4.8,0.,4.8
1986-01-24 00:17:34.230 ,0,0,,0,0.,4.8,0.,4.8,,0,0.,4.8,0.,4.8
1986-01-24 00:17:39.030 ,1,0,,0,1.,4.8,0.,4.8,,0,0.,4.8,0.,4.8
1986-01-24 00:17:43.830 ,1,0,,0,3.,4.8,0.,4.8,,0,0.,4.8,0.,4.8
1986-01-24 00:17:48.630 ,1,0,,0,1.,4.8,0.,4.8,,0,0.,4.8,0.,4.8
1986-01-24 00:17:53.430 ,1,0,,0,0.,4.8,0.,4.8,,0,0.,4.8,0.,4.8
1986-01-24 00:17:58.230 ,1,0,,0,0.,4.8,0.,4.8,,0,0.,4.8,0.,4.8
1986-01-24 00:18:03.030 ,1,0,,0,0.,4.8,0.,4.8,,0,0.,4.8,0.,4.8
1986-01-24 00:18:07.830 ,1,0,,0,0.,4.8,0.,4.8,,0,0.,4.8,0.,4.8
1986-01-24 00:18:12.630 ,1,0,,0,0.,4.8,0.,4.8,,0,0.,4.8,0.,4.8
1986-01-24 00:18:17.430 ,1,0,,0,0.,4.8,0.,4.8,,0,0.,4.8,0.,4.8
1986-01-24 00:18:22.230 ,1,0,,0,1.,4.8,0.,4.8,,0,0.,4.8,0.,4.8
1986-01-24 00:18:27.030 ,2,0,,0,0.,4.8,0.,4.8,,0,0.,4.8,0.,4.8
1986-01-24 00:18:31.830 ,2,0,,0,0.,4.8,0.,4.8,,0,0.,4.8,0.,4.8
1986-01-24 00:18:36.630 ,2,0,,0,1.,4.8,0.,4.8,,0,0.,4.8,0.,4.8
1986-01-24 00:18:41.430 ,2,0,,0,0.,4.8,0.,4.8,,0,0.,4.8,0.,4.8
1986-01-24 00:18:46.230 ,2,0,,0,0.,4.8,0.,4.8,,0,0.,4.8,0.,4.8
1986-01-24 00:18:51.030 ,2,0,,0,0.,4.8,0.,4.8,,0,0.,4.8,0.,4.8
1986-01-24 00:18:55.830 ,2,0,,0,0.,4.8,0.,4.8,,0,0.,4.8,0.,4.8
1986-01-24 00:19:00.630 ,2,0,,0,1.,4.8,0.,4.8,,0,0.,4.8,0.,4.8
1986-01-24 00:19:05.430 ,2,0,,0,0.,4.8,0.,4.8,,0,0.,4.8,0.,4.8
1986-01-24 00:19:10.230 ,2,0,,0,1.,4.8,0.,4.8,,0,0.,4.8,0.,4.8
1986-01-24 00:19:15.030 ,3,0,,0,0.,4.8,0.,4.8,,0,0.,4.8,0.,4.8
1986-01-24 00:19:19.830 ,3,0,,0,0.,4.8,0.,4.8,,0,0.,4.8,0.,4.8
1986-01-24 00:19:24.630 ,3,0,,0,0.,4.8,0.,4.8,,0,0.,4.8,0.,4.8
1986-01-24 00:19:29.430 ,3,0,,0,0.,4.8,0.,4.8,,0,0.,4.8,0.,4.8
1986-01-24 00:19:34.230 ,3,0,,0,0.,4.8,0.,4.8,,0,0.,4.8,0.,4.8
1986-01-24 00:19:39.030 ,3,0,,0,0.,4.8,0.,4.8,,0,0.,4.8,0.,4.8
1986-01-24 00:19:43.830 ,3,0,,0,1.,4.8,0.,4.8,,0,0.,4.8,0.,4.8
1986-01-24 00:19:48.630 ,3,0,,0,0.,4.8,0.,4.8,,0,0.,4.8,0.,4.8
1986-01-24 00:19:53.430 ,3,0,,0,0.,4.8,0.,4.8,,0,0.,4.8,0.,4.8
1986-01-24 00:19:58.230 ,3,0,,0,0.,4.8,0.,4.8,,0,0.,4.8,0.,4.8
1986-01-24 00:20:03.030 ,4,0,,0,0.,4.8,0.,4.8,,0,0.,4.8,0.,4.8
1986-01-24 00:20:07.830 ,4,0,,0,0.,4.8,0.,4.8,,0,0.,4.8,0.,4.8
1986-01-24 00:20:12.630 ,4,0,,0,0.,4.8,0.,4.8,,0,0.,4.8,0.,4.8
1986-01-24 00:20:17.430 ,4,0,,0,0.,4.8,0.,4.8,,0,0.,4.8,0.,4.8
1986-01-24 00:20:22.230 ,4,0,,0,0.,4.8,0.,4.8,,0,0.,4.8,0.,4.8
1986-01-24 00:20:27.030 ,4,0,,0,0.,4.8,0.,4.8,,0,0.,4.8,0.,4.8
1986-01-24 00:20:31.830 ,4,0,,0,0.,4.8,0.,4.8,,0,0.,4.8,0.,4.8
1986-01-24 00:20:36.630 ,4,0,,0,0.,4.8,0.,4.8,,0,0.,4.8,0.,4.8
1986-01-24 00:20:41.430 ,4,0,,0,1.,4.8,0.,4.8,,0,0.,4.8,0.,4.8
1986-01-24 00:20:46.230 ,4,0,,0,0.,4.8,0.,4.8,,0,0.,4.8,0.,4.8
1986-01-24 00:20:51.030 ,5,0,,0,0.,4.8,0.,4.8,,0,0.,4.8,0.,4.8
1986-01-24 00:20:55.830 ,5,0,,0,0.,4.8,0.,4.8,,0,0.,4.8,0.,4.8
1986-01-24 00:21:00.630 ,5,0,,0,0.,4.8,0.,4.8,,0,0.,4.8,0.,4.8
1986-01-24 00:21:05.430 ,5,0,,0,0.,4.8,0.,4.8,,0,0.,4.8,0.,4.8
1986-01-24 00:21:10.230 ,5,0,,0,0.,4.8,0.,4.8,,0,0.,4.8,0.,4.8
1986-01-24 00:21:15.030 ,5,0,,0,0.,4.8,0.,4.8,,0,0.,4.8,0.,4.8
1986-01-24 00:21:19.830 ,5,0,,0,1.,4.8,0.,4.8,,0,0.,4.8,0.,4.8
1986-01-24 00:21:24.630 ,5,0,,0,0.,4.8,0.,4.8,,0,0.,4.8,0.,4.8
1986-01-24 00:21:29.430 ,5,0,,0,1.,4.8,0.,4.8,,0,0.,4.8,0.,4.8
1986-01-24 00:21:34.230 ,5,0,,0,0.,4.8,0.,4.8,,0,0.,4.8,0.,4.8
1986-01-24 00:21:39.030 ,6,0,,0,2.,4.8,0.,4.8,,0,0.,4.8,0.,4.8
1986-01-24 00:21:43.830 ,6,0,,0,1.,4.8,0.,4.8,,0,0.,4.8,0.,4.8
1986-01-24 00:21:48.630 ,6,0,,0,1.,4.8,0.,4.8,,0,0.,4.8,0.,4.8
1986-01-24 00:21:53.430 ,6,0,,0,0.,4.8,0.,4.8,,0,0.,4.8,0.,4.8
1986-01-24 00:21:58.230 ,6,0,,0,0.,4.8,0.,4.8,,0,0.,4.8,0.,4.8
1986-01-24 00:22:03.030 ,6,0,,0,0.,4.8,0.,4.8,,0,0.,4.8,0.,4.8
1986-01-24 00:22:07.830 ,6,0,,0,0.,4.8,0.,4.8,,0,0.,4.8,0.,4.8
1986-01-24 00:22:12.630 ,6,0,,0,0.,4.8,0.,4.8,,0,0.,4.8,0.,4.8
1986-01-24 00:22:17.430 ,6,0,,0,1.,4.8,0.,4.8,,0,0.,4.8,0.,4.8
1986-01-24 00:22:22.230 ,6,0,,0,0.,4.8,0.,4.8,,0,0.,4.8,0.,4.8
1986-01-24 00:22:27.030 ,7,0,,0,1.,4.8,0.,4.8,,0,0.,4.8,0.,4.8
1986-01-24 00:22:31.830 ,7,0,,0,0.,4.8,0.,4.8,,0,0.,4.8,0.,4.8
1986-01-24 00:22:36.630 ,7,0,,0,0.,4.8,0.,4.8,,0,0.,4.8,0.,4.8
1986-01-24 00:22:41.430 ,7,0,,0,5.,4.8,0.,4.8,,0,0.,4.8,0.,4.8
1986-01-24 00:22:46.230 ,7,0,,0,4.,4.8,0.,4.8,,0,0.,4.8,0.,4.8
1986-01-24 00:22:51.030 ,7,0,,0,4.,4.8,0.,4.8,,0,0.,4.8,0.,4.8
1986-01-24 00:22:55.830 ,7,0,,0,7.,4.8,0.,4.8,,0,0.,4.8,0.,4.8
1986-01-24 00:23:00.630 ,7,0,,0,6.,4.8,0.,4.8,,0,0.,4.8,0.,4.8
1986-01-24 00:23:05.430 ,7,0,,0,0.,4.8,0.,4.8,,0,0.,4.8,0.,4.8
1986-01-24 00:23:10.230 ,7,0,,0,0.,4.8,0.,4.8,,0,0.,4.8,0.,4.8
1986-01-24 00:23:15.030 ,7,0,,0,0.,4.8,0.,4.8,,0,0.,4.8,0.,4.8
1986-01-24 00:23:19.830 ,7,0,,0,2.,4.8,0.,4.8,,0,0.,4.8,0.,4.8
1986-01-24 00:23:24.630 ,7,0,,0,0.,4.8,0.,4.8,,0,0.,4.8,0.,4.8
1986-01-24 00:23:29.430 ,7,0,,0,4.,4.8,0.,4.8,,0,0.,4.8,0.,4.8
1986-01-24 00:23:34.230 ,7,0,,0,7.,4.8,0.,4.8,,0,0.,4.8,0.,4.8
1986-01-24 00:23:39.030 ,7,0,,0,3.,4.8,0.,4.8,,0,0.,4.8,0.,4.8
1986-01-24 00:23:43.830 ,7,0,,0,6.,4.8,0.,4.8,,0,0.,4.8,0.,4.8
1986-01-24 00:23:48.630 ,7,0,,0,6.,4.8,0.,4.8,,0,0.,4.8,0.,4.8
1986-01-24 00:23:53.430 ,7,0,,0,0.,4.8,0.,4.8,,0,0.,4.8,0.,4.8
1986-01-24 00:23:58.230 ,7,0,,0,1.,4.8,0.,4.8,,0,0.,4.8,0.,4.8
1986-01-24 00:24:03.030 ,6,0,,0,0.,4.8,0.,4.8,,0,0.,4.8,0.,4.8
1986-01-24 00:24:07.830 ,6,0,,0,2.,4.8,0.,4.8,,0,0.,4.8,0.,4.8
1986-01-24 00:24:12.630 ,6,0,,0,0.,4.8,0.,4.8,,0,0.,4.8,0.,4.8
1986-01-24 00:24:17.430 ,6,0,,0,0.,4.8,0.,4.8,,0,0.,4.8,0.,4.8
1986-01-24 00:24:22.230 ,6,0,,0,0.,4.8,0.,4.8,,0,0.,4.8,0.,4.8
1986-01-24 00:24:27.030 ,6,0,,0,2.,4.8,0.,4.8,,0,0.,4.8,0.,4.8
1986-01-24 00:24:31.830 ,6,0,,0,0.,4.8,0.,4.8,,0,0.,4.8,0.,4.8
1986-01-24 00:24:36.630 ,6,0,,0,0.,4.8,0.,4.8,,0,0.,4.8,0.,4.8
1986-01-24 00:24:41.430 ,6,0,,0,0.,4.8,0.,4.8,,0,0.,4.8,0.,4.8
1986-01-24 00:24:46.230 ,6,0,,0,0.,4.8,0.,4.8,,0,0.,4.8,0.,4.8
1986-01-24 00:24:51.030 ,5,0,,0,0.,4.8,0.,4.8,,0,0.,4.8,0.,4.8
1986-01-24 00:24:55.830 ,5,0,,0,0.,4.8,0.,4.8,,0,0.,4.8,0.,4.8
1986-01-24 00:25:00.630 ,5,0,,0,0.,4.8,0.,4.8,,0,0.,4.8,0.,4.8
1986-01-24 00:25:05.430 ,5,0,,0,0.,4.8,0.,4.8,,0,0.,4.8,0.,4.8
1986-01-24 00:25:10.230 ,5,0,,0,0.,4.8,0.,4.8,,0,0.,4.8,0.,4.8
1986-01-24 00:25:15.030 ,5,0,,0,1.,4.8,0.,4.8,,0,0.,4.8,0.,4.8
1986-01-24 00:25:19.830 ,5,0,,0,1.,4.8,0.,4.8,,0,0.,4.8,0.,4.8
1986-01-24 00:25:24.630 ,5,0,,0,0.,4.8,0.,4.8,,0,0.,4.8,0.,4.8
1986-01-24 00:25:29.430 ,5,0,,0,0.,4.8,0.,4.8,,0,0.,4.8,0.,4.8
1986-01-24 00:25:34.230 ,5,0,,0,1.,4.8,0.,4.8,,0,0.,4.8,0.,4.8
1986-01-24 00:25:39.030 ,4,0,,0,1.,4.8,0.,4.8,,0,0.,4.8,0.,4.8
1986-01-24 00:25:43.830 ,4,0,,0,0.,4.8,0.,4.8,,0,0.,4.8,0.,4.8
1986-01-24 00:25:48.630 ,4,0,,0,0.,4.8,0.,4.8,,0,0.,4.8,0.,4.8
1986-01-24 00:25:53.430 ,4,0,,0,0.,4.8,0.,4.8,,0,0.,4.8,0.,4.8
1986-01-24 00:25:58.230 ,4,0,,0,0.,4.8,0.,4.8,,0,0.,4.8,0.,4.8
1986-01-24 00:26:03.030 ,4,0,,0,0.,4.8,0.,4.8,,0,0.,4.8,0.,4.8
1986-01-24 00:26:07.830 ,4,0,,0,0.,4.8,0.,4.8,,0,0.,4.8,0.,4.8
1986-01-24 00:26:12.630 ,4,0,,0,0.,4.8,0.,4.8,,0,0.,4.8,0.,4.8
1986-01-24 00:26:17.430 ,4,0,,0,1.,4.8,0.,4.8,,0,0.,4.8,0.,4.8
1986-01-24 00:26:22.230 ,4,0,,0,0.,4.8,0.,4.8,,0,0.,4.8,0.,4.8
1986-01-24 00:26:27.030 ,3,0,,0,2.,4.8,0.,4.8,,0,0.,4.8,0.,4.8
1986-01-24 00:26:31.830 ,3,0,,0,0.,4.8,0.,4.8,,0,0.,4.8,0.,4.8
1986-01-24 00:26:36.630 ,3,0,,0,0.,4.8,0.,4.8,,0,0.,4.8,0.,4.8
1986-01-24 00:26:41.430 ,3,0,,0,0.,4.8,0.,4.8,,0,0.,4.8,0.,4.8
1986-01-24 00:26:46.230 ,3,0,,0,0.,4.8,0.,4.8,,0,0.,4.8,0.,4.8
1986-01-24 00:26:51.030 ,3,0,,0,0.,4.8,0.,4.8,,0,0.,4.8,0.,4.8
1986-01-24 00:26:55.830 ,3,0,,0,0.,4.8,0.,4.8,,0,0.,4.8,0.,4.8
1986-01-24 00:27:00.630 ,3,0,,0,0.,4.8,0.,4.8,,0,0.,4.8,0.,4.8
1986-01-24 00:27:05.430 ,3,0,,0,1.,4.8,0.,4.8,,0,0.,4.8,0.,4.8
1986-01-24 00:27:10.230 ,3,0,,0,0.,4.8,0.,4.8,,0,0.,4.8,0.,4.8
1986-01-24 00:27:15.030 ,2,0,,0,0.,4.8,0.,4.8,,0,0.,4.8,0.,4.8
1986-01-24 00:27:19.830 ,2,0,,0,1.,4.8,0.,4.8,,0,0.,4.8,0.,4.8
1986-01-24 00:27:24.630 ,2,0,,0,0.,4.8,0.,4.8,,0,0.,4.8,0.,4.8
1986-01-24 00:27:29.430 ,2,0,,0,0.,4.8,0.,4.8,,0,0.,4.8,0.,4.8
1986-01-24 00:27:34.230 ,2,0,,0,0.,4.8,0.,4.8,,0,0.,4.8,0.,4.8
1986-01-24 00:27:39.030 ,2,0,,0,0.,4.8,0.,4.8,,0,0.,4.8,0.,4.8
1986-01-24 00:27:43.830 ,2,0,,0,0.,4.8,0.,4.8,,0,0.,4.8,0.,4.8
1986-01-24 00:27:48.630 ,2,0,,0,0.,4.8,0.,4.8,,0,0.,4.8,0.,4.8
1986-01-24 00:27:53.430 ,2,0,,0,0.,4.8,0.,4.8,,0,0.,4.8,0.,4.8
1986-01-24 00:27:58.230 ,2,0,,0,0.,4.8,0.,4.8,,0,0.,4.8,0.,4.8
1986-01-24 00:28:03.030 ,1,0,,0,1.,4.8,0.,4.8,,0,0.,4.8,0.,4.8
1986-01-24 00:28:07.830 ,1,0,,0,1.,4.8,0.,4.8,,0,0.,4.8,0.,4.8
1986-01-24 00:28:12.630 ,1,0,,0,2.,4.8,0.,4.8,,0,0.,4.8,0.,4.8
1986-01-24 00:28:17.430 ,1,0,,0,0.,4.8,0.,4.8,,0,0.,4.8,0.,4.8
1986-01-24 00:28:22.230 ,1,0,,0,0.,4.8,0.,4.8,,0,0.,4.8,0.,4.8
1986-01-24 00:28:27.030 ,1,0,,0,0.,4.8,0.,4.8,,0,0.,4.8,0.,4.8
1986-01-24 00:28:31.830 ,1,0,,0,0.,4.8,0.,4.8,,0,0.,4.8,0.,4.8
1986-01-24 00:28:36.630 ,1,0,,0,0.,4.8,0.,4.8,,0,0.,4.8,0.,4.8
1986-01-24 00:28:41.430 ,1,0,,0,0.,4.8,0.,4.8,,0,0.,4.8,0.,4.8
1986-01-24 00:28:46.230 ,1,0,,0,1.,4.8,0.,4.8,,0,0.,4.8,0.,4.8
1986-01-24 00:28:51.030 ,0,0,,0,0.,4.8,0.,4.8,,0,0.,4.8,0.,4.8
1986-01-24 00:28:55.830 ,0,0,,0,0.,4.8,0.,4.8,,0,0.,4.8,0.,4.8
1986-01-24 00:29:00.630 ,0,0,,0,0.,4.8,0.,4.8,,0,0.,4.8,0.,4.8
1986-01-24 00:29:05.430 ,0,0,,0,0.,4.8,0.,4.8,,0,0.,4.8,0.,4.8
1986-01-24 00:29:10.230 ,0,0,,0,0.,4.8,0.,4.8,,0,0.,4.8,0.,4.8
1986-01-24 00:29:15.030 ,0,0,,0,0.,4.8,0.,4.8,,0,0.,4.8,0.,4.8
1986-01-24 00:29:19.830 ,0,0,,0,0.,4.8,0.,4.8,,0,0.,4.8,0.,4.8
1986-01-24 00:29:24.630 ,0,0,,0,0.,4.8,0.,4.8,,0,0.,4.8,0.,4.8
1986-01-24 00:29:29.430 ,0,0,,0,0.,4.8,0.,4.8,,0,0.,4.8,0.,4.8
1986-01-24 00:29:34.230 ,0,0,,0,0.,4.8,0.,4.8,,0,0.,4.8,0.,4.8
1986-01-24 00:29:39.030 ,0,0,,0,0.,4.8,0.,4.8,,0,0.,4.8,0.,4.8
1986-01-24 00:29:43.830 ,0,0,,0,0.,4.8,0.,4.8,,0,0.,4.8,0.,4.8
1986-01-24 00:29:48.630 ,0,0,,0,0.,4.8,0.,4.8,,0,0.,4.8,0.,4.8